RH
18 18 17 15 16 16 16 19 19 19 19 18 18 17 18 20 21 22 21 21 21 20 20 20 25 34 36 38 42 45 49 54 60 65 65 65 63 62 61 59 58 58 59 58 59 62 62 60 61 63 64 62 60 58 57 57 57 58 58 57 59 61 61 64 65 61 57 52 45 41 39 39 37 37 36 35 35 36 39 42 42 42 40 37 36 35
19 19 18 17 18 18 17 19 20 20 20 18 17 17 18 20 22 22 22 22 21 21 21 23 29 36 36 37 40 43 46 48 52 55 55 59 61 63 67 67 62 60 64 63 60 62 63 62 63 64 62 61 60 58 56 58 60 61 60 59 60 62 62 64 67 64 57 49 44 41 39 39 38 37 36 36 37 38 40 42 42 41 39 37 36 34
22 20 20 20 21 20 20 20 19 19 19 19 18 16 19 21 23 23 21 22 22 20 21 25 30 34 37 40 40 41 44 46 49 51 51 55 58 61 68 73 73 69 69 67 64 65 66 65 65 63 61 61 60 57 58 61 63 63 62 62 61 61 61 63 65 60 52 46 43 40 39 39 38 37 37 37 39 41 42 42 42 40 38 36 34 34
23 21 21 23 22 21 21 20 18 18 19 20 19 17 19 22 24 24 22 22 22 21 21 24 28 33 40 47 44 41 43 44 47 49 48 49 54 58 60 65 75 77 74 73 71 69 68 66 64 62 61 61 60 60 63 67 67 65 63 64 64 63 62 62 60 54 48 44 40 38 39 39 38 38 39 41 43 44 43 42 42 40 36 34 33 32
23 22 23 23 22 21 21 20 18 17 18 20 20 18 19 22 25 24 23 22 22 23 22 22 24 31 43 52 48 42 41 42 45 46 46 46 50 55 56 59 68 71 73 78 76 69 67 66 63 61 59 59 61 64 68 72 70 66 64 65 67 65 62 60 55 50 44 40 38 39 41 41 41 42 44 46 46 44 42 42 41 38 36 33 32 31
24 24 25 23 22 21 21 20 18 16 17 20 20 19 20 23 25 25 25 23 22 23 23 21 22 26 38 48 47 43 42 41 43 43 43 45 47 49 55 64 68 65 67 77 79 72 69 67 62 60 59 59 63 67 72 73 68 64 65 66 66 63 60 56 50 45 42 41 42 44 43 43 44 45 47 46 44 43 43 43 41 38 36 33 31 30
26 26 25 24 24 23 21 20 18 16 17 18 19 20 21 23 25 26 25 25 24 24 24 23 22 23 33 44 45 44 42 40 42 42 41 45 46 47 57 68 72 68 67 71 75 75 72 68 63 60 60 61 66 70 72 69 64 63 66 65 64 62 58 52 47 44 45 47 48 47 47 47 47 47 45 43 42 44 45 44 40 36 34 31 29 28
27 28 27 25 25 24 22 21 18 17 16 17 19 21 23 24 26 26 25 25 26 25 26 24 22 22 28 38 42 42 43 40 40 41 39 42 46 51 62 69 69 68 67 64 69 76 74 69 65 62 62 64 67 69 69 66 65 66 67 65 64 64 59 52 48 47 51 55 53 51 50 50 48 45 42 41 42 44 44 41 36 32 29 26 26 26
27 29 28 26 26 25 23 21 19 17 15 16 19 21 23 25 27 27 25 26 26 26 25 24 24 23 24 31 37 42 44 39 37 39 37 38 43 52 63 70 68 65 67 64 63 70 72 69 69 66 65 68 68 68 67 67 69 70 68 66 65 65 63 58 53 54 56 58 55 53 51 49 47 43 41 41 42 42 40 36 30 27 25 24 24 25
26 27 27 26 26 25 23 20 18 17 16 16 18 20 23 26 29 29 27 27 27 27 26 24 24 23 23 30 36 43 44 37 33 34 33 35 41 49 59 69 69 66 67 65 59 63 69 71 71 69 68 70 69 67 65 65 69 71 69 67 64 64 64 62 59 60 60 58 55 53 50 48 45 43 41 41 39 37 34 29 25 24 23 23 24 24
27 27 28 27 26 24 22 20 18 17 17 17 17 18 22 27 31 31 29 28 28 28 27 25 25 24 24 30 35 38 36 30 29 31 31 34 42 49 55 66 71 66 64 65 62 62 67 69 69 69 70 70 68 66 64 63 66 70 69 68 66 62 61 61 60 59 58 55 54 51 48 46 44 43 41 38 36 33 29 25 24 23 22 23 23 23
29 29 28 28 28 25 23 21 19 18 17 17 16 17 22 28 31 31 30 29 29 29 27 26 26 25 25 28 32 33 30 27 29 31 31 33 42 53 58 64 70 65 62 66 66 63 65 68 68 68 68 69 68 67 66 65 65 66 67 67 66 62 61 61 60 57 54 51 50 48 46 45 45 43 39 36 33 29 26 25 23 22 22 23 24 24
30 29 27 27 29 26 24 23 22 19 18 17 17 18 22 27 31 33 31 31 31 29 29 28 27 27 26 26 28 30 30 29 29 30 33 35 42 56 64 66 68 66 66 69 68 64 64 68 69 67 67 69 69 69 68 67 66 66 67 67 65 62 61 62 59 54 50 48 48 47 46 47 45 41 36 33 30 27 26 24 22 22 23 24 25 25
31 30 28 28 29 27 24 24 23 22 19 18 18 18 20 25 32 34 32 32 32 30 31 30 28 30 28 27 31 33 33 33 32 32 35 37 43 55 65 68 67 66 68 70 68 65 65 68 69 68 67 68 69 68 67 67 67 68 69 68 64 60 60 59 55 50 48 47 48 48 48 48 44 38 33 30 27 26 26 23 22 24 25 25 26 27
31 31 29 28 29 27 25 24 21 20 19 19 18 17 18 21 26 30 30 30 31 31 34 33 30 32 31 34 39 39 38 39 37 35 35 38 45 54 61 66 65 64 66 68 67 65 66 67 68 67 65 66 67 66 65 65 65 67 68 66 62 59 58 56 53 50 49 49 49 49 49 46 40 34 31 28 27 26 24 22 23 26 26 26 27 28
28 29 27 28 29 26 26 25 20 19 20 21 19 17 19 19 21 27 29 30 30 30 34 35 36 38 36 38 42 40 40 40 37 37 37 41 47 52 58 61 61 63 66 69 69 67 66 66 67 67 66 66 67 67 67 64 63 64 63 62 61 59 58 56 54 52 51 50 49 49 48 43 37 33 31 29 27 26 25 25 27 29 28 27 28 28
27 28 28 28 30 28 25 23 21 20 21 22 20 19 20 18 20 27 30 33 32 28 34 41 44 45 38 36 42 42 41 40 38 39 39 41 48 53 54 57 63 67 69 71 71 68 67 66 66 68 68 69 69 69 68 64 63 64 63 63 62 60 57 56 54 52 50 49 49 48 46 41 36 33 31 29 28 27 27 29 31 31 30 28 28 29
27 28 29 27 28 29 26 22 20 20 20 21 21 20 20 19 20 23 26 33 31 27 39 50 49 48 43 40 44 43 40 40 39 39 41 43 48 51 50 56 64 67 68 72 73 70 68 66 67 69 70 72 72 72 70 65 63 64 64 65 63 60 58 57 54 51 49 48 49 48 44 39 35 33 32 30 28 30 31 32 32 31 31 30 30 31
29 28 29 27 28 29 27 25 23 21 20 20 20 18 18 19 21 22 24 30 29 30 45 56 55 52 45 43 45 41 38 40 39 40 43 45 46 46 47 53 60 60 62 70 73 71 70 69 71 73 73 73 73 75 75 69 65 64 64 63 61 59 60 59 56 52 49 49 48 46 41 37 36 33 32 31 32 33 33 32 32 32 32 32 32 32
30 30 31 28 28 29 28 28 27 25 22 21 20 18 18 19 20 21 22 24 28 34 43 54 62 55 41 38 41 38 37 38 38 41 43 43 44 44 45 50 56 59 61 65 69 72 71 71 74 74 73 74 74 75 77 75 72 68 65 63 62 62 62 59 55 50 48 48 45 43 40 38 36 33 33 34 35 34 33 33 34 34 34 34 35 35
31 31 32 29 29 30 29 29 28 25 23 21 22 21 20 20 20 20 22 22 26 35 41 48 56 48 36 35 37 36 37 38 38 41 42 42 43 44 45 48 53 60 63 64 69 73 71 70 72 72 72 75 76 75 74 74 74 71 67 65 64 63 61 57 52 49 46 44 42 42 41 38 36 35 36 37 35 34 34 34 35 36 36 37 37 38
31 31 33 32 30 30 29 28 25 23 20 19 21 21 20 20 19 19 22 24 27 35 42 43 40 34 33 38 38 36 38 39 39 41 44 44 43 45 46 47 51 59 63 65 70 73 71 69 70 71 72 74 77 76 73 71 71 69 67 66 64 62 61 57 53 48 44 40 41 42 40 37 36 37 37 37 36 35 35 35 36 37 39 40 40 41
33 32 34 34 31 30 30 28 25 22 20 19 19 19 19 20 19 17 20 24 26 35 43 39 30 29 36 40 40 38 38 39 41 43 46 46 46 47 47 47 51 58 62 66 69 71 72 71 71 73 73 73 75 76 74 72 70 68 66 64 62 61 60 58 54 48 43 40 40 41 39 38 38 38 38 38 38 38 37 38 39 40 42 43 43 42
37 33 34 36 34 32 30 28 26 23 22 21 20 18 19 20 19 18 20 22 24 31 38 35 27 30 39 41 41 40 39 41 44 44 47 49 49 50 49 48 51 56 62 67 69 71 73 72 73 74 73 74 75 74 74 74 72 70 69 66 63 61 59 57 53 47 42 40 40 39 39 39 40 40 40 40 40 40 40 41 43 44 45 45 44 43
35 33 35 38 38 36 35 33 30 26 24 23 22 20 19 20 22 22 22 22 23 28 32 29 25 31 41 43 41 40 39 43 45 47 50 52 52 52 51 51 52 55 61 65 67 72 74 75 77 77 75 74 73 71 73 75 73 70 70 68 65 63 61 57 51 46 42 40 39 39 40 41 43 42 42 42 43 43 44 45 46 45 46 46 45 44
35 35 37 38 38 38 38 35 33 29 27 26 24 22 21 22 23 23 22 21 21 27 31 27 24 33 44 46 44 42 43 46 48 48 51 53 55 55 54 54 53 55 60 64 68 71 72 74 77 77 75 72 69 71 74 76 75 73 72 69 66 64 61 56 50 46 43 41 39 41 43 44 44 43 44 45 45 46 47 47 46 46 47 47 46 44
38 38 38 40 39 36 33 33 32 29 27 26 26 24 22 23 23 23 22 21 20 25 30 27 27 37 45 47 47 48 48 49 50 49 49 52 56 57 57 56 56 59 65 68 68 69 70 73 74 73 74 72 70 73 73 72 75 76 75 72 69 65 60 54 51 48 44 42 43 45 45 45 45 46 47 48 48 48 47 46 46 47 48 47 46 44
38 37 39 45 45 40 37 37 36 33 29 25 25 25 24 24 26 25 23 23 23 24 26 28 33 37 39 43 47 48 49 50 50 49 48 51 56 60 60 60 60 65 69 69 69 70 71 73 73 72 73 73 73 74 74 72 74 76 76 73 70 67 61 55 53 50 48 47 47 47 47 47 48 49 50 49 49 48 46 46 48 49 49 47 45 43
38 36 41 48 49 49 48 45 43 40 34 29 26 26 26 26 27 26 25 26 25 22 21 27 35 34 33 40 44 44 46 48 49 51 52 55 60 64 66 67 67 69 69 67 69 71 70 69 71 73 74 75 75 74 76 76 76 77 77 73 68 65 62 58 56 54 52 51 50 49 49 50 51 51 51 50 49 48 48 49 50 51 49 47 44 42
39 38 45 50 52 55 55 52 51 45 39 36 34 31 28 29 28 26 28 31 29 27 27 31 37 34 32 38 41 42 44 47 50 53 55 57 61 65 70 71 71 71 70 69 70 70 68 70 73 74 75 77 76 75 76 77 77 80 79 72 66 64 62 61 59 58 56 54 53 52 52 52 52 52 51 50 50 50 50 51 52 52 49 46 44 43
38 41 49 50 50 55 56 55 55 49 43 42 43 40 34 32 32 31 33 34 33 35 38 37 38 37 35 37 40 42 44 45 49 52 53 55 57 61 66 69 71 72 72 72 72 70 70 72 72 73 73 74 74 74 76 77 77 79 75 67 66 65 62 62 62 60 59 57 55 54 54 53 53 52 51 52 52 52 53 53 54 53 50 47 44 43
39 45 51 47 45 53 59 58 56 51 46 44 46 46 40 35 36 37 37 35 33 37 41 37 34 35 36 38 41 43 45 46 48 50 52 53 54 55 59 64 71 74 72 72 70 68 69 70 71 72 72 72 71 73 75 75 73 73 70 67 69 68 63 64 65 63 61 58 55 55 55 54 53 53 54 55 55 55 55 56 56 54 50 47 45 44
42 46 51 46 43 54 64 64 58 52 46 44 46 49 46 44 43 41 41 40 37 37 36 31 29 33 37 39 42 44 44 45 45 47 50 52 53 54 57 62 70 73 71 70 68 67 70 71 71 72 71 70 70 70 71 69 65 65 68 72 76 72 67 67 68 66 63 60 57 56 57 56 56 56 56 56 56 57 58 58 56 54 50 47 45 44
45 46 51 48 45 55 65 64 58 52 47 47 51 52 51 51 48 43 43 43 41 39 37 35 36 39 39 39 41 43 43 43 44 45 48 51 53 55 57 63 69 69 68 70 71 71 73 74 73 73 71 70 68 66 65 64 62 62 67 73 76 74 71 71 71 69 67 63 60 60 60 59 58 57 57 58 59 59 59 58 55 51 48 46 45 43
45 45 51 51 48 56 65 62 57 54 52 54 56 54 52 52 52 50 48 48 46 45 46 45 44 43 40 38 40 42 42 43 44 46 48 51 53 53 56 61 66 65 64 69 72 72 73 73 72 71 69 68 66 64 64 64 64 67 71 74 74 73 75 76 74 72 70 67 64 63 62 60 59 58 59 60 61 61 60 58 54 50 47 45 44 44
46 46 51 53 53 58 64 63 60 58 59 62 63 60 56 55 55 51 47 47 49 49 49 47 45 43 41 40 40 41 42 43 44 46 49 52 53 54 55 60 63 63 65 69 72 71 71 71 70 70 69 67 65 64 64 65 67 71 75 77 76 75 77 79 76 74 73 70 68 66 63 62 61 60 61 61 62 61 59 55 52 48 45 44 44 43
46 49 51 53 57 61 63 64 62 61 60 62 65 66 62 58 57 51 43 45 51 51 49 48 47 45 43 42 43 44 44 45 46 47 49 52 55 57 59 63 64 65 69 72 72 71 71 70 71 70 69 66 64 64 65 66 68 71 74 77 77 77 77 78 77 76 75 73 70 67 64 63 63 62 62 62 62 60 57 53 49 45 44 44 42 38
46 48 50 53 58 62 62 64 67 66 62 59 63 69 67 62 61 57 49 49 53 54 52 49 49 48 46 46 48 47 46 48 48 46 47 50 54 57 62 67 69 70 72 72 72 72 72 71 70 67 65 63 63 64 66 68 70 72 74 76 79 80 80 79 78 77 77 75 71 68 66 66 64 63 63 63 61 58 54 49 45 43 43 40 35 30
49 49 50 53 59 62 61 63 67 67 64 62 64 69 70 68 67 62 53 50 54 57 56 52 51 51 50 50 50 48 48 50 49 47 47 49 51 54 61 68 72 74 74 73 73 74 72 70 68 65 62 63 65 67 69 70 72 75 77 78 81 83 82 80 80 80 78 74 71 70 69 67 65 65 64 62 58 53 49 45 42 41 39 33 28 24
51 51 51 53 58 61 61 62 63 62 64 68 68 69 71 71 68 62 53 50 55 60 59 56 55 55 54 54 53 50 50 51 52 51 51 53 55 57 62 67 71 73 74 74 74 74 72 69 67 65 65 66 68 69 69 71 75 79 79 79 82 84 83 82 81 80 76 73 72 70 69 67 67 65 62 57 53 49 45 43 41 37 33 27 24 21
54 54 53 53 55 58 59 60 61 59 63 70 70 70 72 70 64 58 52 52 58 63 63 60 59 58 58 56 55 53 52 54 55 55 56 58 59 61 64 69 72 73 74 73 72 73 74 73 70 68 68 70 70 70 69 72 77 79 79 81 83 85 84 83 80 77 74 72 71 68 67 67 66 62 57 53 49 46 43 40 36 32 28 25 21 18
56 56 55 54 55 57 56 57 59 57 60 68 71 72 72 67 59 55 54 57 61 64 64 62 60 59 59 57 56 54 54 54 54 56 59 60 59 60 63 66 69 72 74 74 74 75 76 74 72 71 71 72 71 69 68 71 76 80 83 85 85 84 84 81 77 75 73 70 68 67 67 66 62 57 53 51 47 42 39 36 32 28 26 22 18 15
60 57 56 56 57 58 58 60 59 56 58 65 70 71 70 64 58 57 59 61 62 63 63 63 61 59 59 58 57 56 55 55 55 58 62 62 62 62 63 65 69 74 76 77 77 77 75 72 71 71 71 71 70 69 69 72 78 84 88 88 85 82 80 78 75 73 70 67 66 66 65 62 58 54 52 48 43 38 35 32 30 27 23 19 16 12
66 61 59 59 59 58 57 58 57 58 64 67 67 67 67 63 60 60 61 62 61 62 63 62 62 62 61 59 59 57 55 56 58 61 63 65 65 65 65 69 75 78 79 78 78 78 75 71 71 71 71 70 69 68 70 74 79 84 87 86 83 80 78 76 74 71 68 66 65 63 61 59 56 54 50 44 39 34 32 31 28 24 20 17 14 11
71 69 66 63 64 63 61 61 63 67 71 70 67 67 66 63 61 60 59 59 59 60 61 61 61 62 61 59 58 57 56 57 60 64 66 67 68 68 68 72 76 79 80 79 78 76 73 71 71 72 71 71 71 72 78 83 84 85 86 84 81 80 78 76 74 71 68 65 63 61 59 58 55 50 45 41 36 33 32 29 25 21 18 16 12 10
75 78 74 70 69 70 70 72 73 73 71 68 66 66 64 63 62 60 58 59 59 58 59 60 59 60 60 59 58 58 58 58 61 66 69 70 71 72 73 77 79 79 80 79 77 75 72 70 73 74 72 72 73 78 85 89 87 86 86 84 82 81 79 77 74 71 68 64 62 59 57 55 52 47 43 39 36 34 31 26 22 19 16 13 11 10
75 78 79 76 72 68 69 73 75 72 70 68 65 64 62 60 60 59 58 59 60 59 58 58 58 59 60 59 57 57 58 60 62 67 69 71 73 75 77 80 81 80 78 78 76 74 72 72 75 76 74 74 75 79 84 87 88 87 86 84 83 81 80 77 74 70 66 63 61 59 56 52 48 43 40 38 35 32 28 23 20 17 14 12 11 10
74 74 76 78 75 71 71 75 75 72 71 69 65 64 63 60 59 58 57 57 58 58 57 56 56 58 60 59 57 57 59 61 63 65 66 69 73 77 79 80 80 78 76 77 75 73 73 75 77 78 77 76 77 79 82 85 88 88 85 83 81 78 75 72 68 65 63 61 58 56 53 48 42 38 37 35 32 28 23 20 17 14 13 12 11 9
74 73 72 74 74 72 72 75 75 72 71 70 69 67 66 63 61 59 57 57 58 57 56 56 55 56 59 59 58 59 62 64 65 66 67 69 74 78 79 79 79 78 76 76 75 75 75 77 78 80 80 78 76 78 81 84 86 86 83 78 74 70 67 65 63 61 59 57 55 52 48 41 37 34 33 31 27 23 20 18 16 13 13 12 10 9
72 72 72 70 69 68 67 70 72 70 69 70 71 70 68 65 63 60 58 59 59 58 58 57 55 55 57 58 60 62 64 66 68 69 69 72 76 79 80 79 79 79 79 78 78 78 77 77 78 80 81 79 78 79 80 81 82 80 75 69 65 63 62 61 59 58 56 54 51 47 41 36 33 31 29 25 23 20 18 17 16 14 13 11 10 8
71 71 70 67 66 66 66 67 68 67 67 69 70 69 67 65 63 62 61 61 62 62 61 59 58 58 60 62 65 66 66 68 71 73 73 74 75 76 78 79 79 80 81 81 80 79 78 77 78 80 81 81 82 81 77 74 73 69 64 61 59 59 60 58 56 54 52 50 45 39 35 33 31 29 26 23 20 18 16 15 16 15 13 11 9 8